Weather History for Keokuk, IA

Change the Weather History Date:

Thursday, February 14, 2013

  Actual Average Record
Temperature  
Mean Temperature 42 °F -  
Max Temperature 48 °F 39 °F 70 °F (1954)
Min Temperature 35 °F 23 °F -3 °F (1936)
Degree Days  
Heating Degree Days 24    
Moisture  
Dew Point 27 °F    
Average Humidity 58    
Maximum Humidity 70    
Minimum Humidity 43    
Precipitation  
Precipitation 0.00 in - - ()
Sea Level Pressure  
Sea Level Pressure 29.90 in    
Wind  
Wind Speed 10 mph (WNW)    
Max Wind Speed 20 mph    
Max Gust Speed 25 mph    
Visibility 10 miles    
Events Rain    
Averages and records for this station are not official NWS values.
T = Trace of Precipitation, MM = Missing Value Source: NWS Daily Summary

Daily Weather History Graph

Daily Weather History Graph

Search for Another Location

Airport:

Trip Planner

Search our weather history database for the weather conditions in past years. The results will help you decide how hot, cold, wet, or windy it might be!

Date:

Astronomy

Feb. 14, 2013 Rise Set
Actual Time 7:00 AM CST 5:40 PM CST
Civil Twilight 6:32 AM CST 6:08 PM CST
Nautical Twilight 6:00 AM CST 6:40 PM CST
Astronomical Twilight 5:28 AM CST 7:11 PM CST
Moon 9:01 AM CST (2/14) 10:44 PM CST (2/14)
Length of Visible Light 11h 35m
Length of Day
10h 39m
Waxing Crescent, 22% of the Moon is Illuminated
Feb 14
Waxing Crescent
Feb 17
First Quarter
Feb 25
Full
Mar 4
Last Quarter
Mar 11
New

Hourly Weather History & Observations

Time (CST) Temp. Windchill Dew Point Humidity Pressure Visibility Wind Dir Wind Speed Gust Speed Precip Events Conditions
12:15 AM 41.0 °F 34.7 °F 28.4 °F 61% 29.75 in 10.0 mi SSW 10.4 mph - N/A   Scattered Clouds
12:35 AM 41.0 °F 34.7 °F 28.4 °F 61% 29.74 in 10.0 mi SSW 10.4 mph - N/A   Overcast
12:55 AM 41.0 °F 34.7 °F 30.2 °F 65% 29.74 in 10.0 mi SSW 10.4 mph - N/A   Overcast
1:15 AM 41.0 °F 35.2 °F 30.2 °F 65% 29.74 in 10.0 mi SW 9.2 mph - N/A   Overcast
1:35 AM 39.2 °F 33.6 °F 30.2 °F 70% 29.74 in 10.0 mi SW 8.1 mph - N/A   Mostly Cloudy
1:55 AM 37.4 °F 31.4 °F 28.4 °F 70% 29.74 in 10.0 mi SW 8.1 mph - N/A   Scattered Clouds
2:15 AM 37.4 °F 31.4 °F 28.4 °F 70% 29.74 in 10.0 mi SW 8.1 mph - N/A   Clear
2:35 AM 37.4 °F 31.4 °F 28.4 °F 70% 29.74 in 10.0 mi WSW 8.1 mph - N/A   Clear
2:55 AM 39.2 °F 33.6 °F 28.4 °F 65% 29.74 in 10.0 mi WSW 8.1 mph - N/A   Clear
3:15 AM 39.2 °F 33.0 °F 28.4 °F 65% 29.75 in 10.0 mi WSW 9.2 mph - N/A   Scattered Clouds
3:35 AM 39.2 °F 33.0 °F 28.4 °F 65% 29.75 in 10.0 mi WSW 9.2 mph - N/A   Scattered Clouds
3:55 AM 39.2 °F 33.0 °F 28.4 °F 65% 29.74 in 10.0 mi WSW 9.2 mph - N/A   Clear
4:15 AM 37.4 °F 30.8 °F 28.4 °F 70% 29.75 in 10.0 mi WSW 9.2 mph - N/A   Clear
4:35 AM 37.4 °F 31.4 °F 26.6 °F 65% 29.75 in 10.0 mi WSW 8.1 mph - N/A   Clear
4:55 AM 37.4 °F 30.3 °F 26.6 °F 65% 29.76 in 10.0 mi WSW 10.4 mph - N/A   Clear
5:15 AM 37.4 °F 31.4 °F 26.6 °F 65% 29.76 in 10.0 mi SW 8.1 mph - N/A   Clear
5:35 AM 37.4 °F 30.8 °F 26.6 °F 65% 29.77 in 10.0 mi West 9.2 mph - N/A   Clear
5:55 AM 37.4 °F 30.8 °F 26.6 °F 65% 29.78 in 10.0 mi West 9.2 mph - N/A   Clear
6:15 AM 37.4 °F 31.4 °F 26.6 °F 65% 29.78 in 10.0 mi West 8.1 mph - N/A   Mostly Cloudy
6:35 AM 37.4 °F 31.4 °F 26.6 °F 65% 29.79 in 10.0 mi West 8.1 mph - N/A   Scattered Clouds
6:55 AM 37.4 °F 29.3 °F 26.6 °F 65% 29.80 in 10.0 mi WNW 12.7 mph - N/A   Clear
7:15 AM 39.2 °F 31.6 °F 28.4 °F 65% 29.81 in 10.0 mi WNW 12.7 mph 20.7 mph N/A   Clear
7:35 AM 39.2 °F 33.0 °F 28.4 °F 65% 29.83 in 10.0 mi WNW 9.2 mph - N/A   Clear
7:55 AM 39.2 °F 32.0 °F 28.4 °F 65% 29.84 in 10.0 mi WNW 11.5 mph 19.6 mph N/A   Mostly Cloudy
8:15 AM 41.0 °F 34.7 °F 28.4 °F 61% 29.84 in 10.0 mi WNW 10.4 mph 19.6 mph N/A   Scattered Clouds
8:35 AM 42.8 °F 36.2 °F 28.4 °F 57% 29.85 in 10.0 mi WNW 12.7 mph 20.7 mph N/A   Scattered Clouds
8:55 AM 42.8 °F 35.4 °F 28.4 °F 57% 29.87 in 10.0 mi NW 15.0 mph - N/A   Overcast
9:15 AM 42.8 °F 36.2 °F 28.4 °F 57% 29.87 in 10.0 mi NW 12.7 mph 21.9 mph N/A   Overcast
9:35 AM 42.8 °F 34.3 °F 28.4 °F 57% 29.88 in 10.0 mi WNW 19.6 mph 24.2 mph N/A   Overcast
9:55 AM 42.8 °F 34.3 °F 26.6 °F 53% 29.89 in 10.0 mi NW 19.6 mph 25.3 mph N/A   Mostly Cloudy
10:15 AM 44.6 °F 37.2 °F 26.6 °F 49% 29.90 in 10.0 mi WNW 17.3 mph 23.0 mph N/A   Mostly Cloudy
10:35 AM 44.6 °F 37.4 °F 26.6 °F 49% 29.90 in 10.0 mi WNW 16.1 mph 23.0 mph N/A   Mostly Cloudy
10:55 AM 44.6 °F 38.8 °F 26.6 °F 49% 29.91 in 10.0 mi NW 11.5 mph 19.6 mph N/A   Overcast
11:15 AM 44.6 °F 38.1 °F 26.6 °F 49% 29.91 in 10.0 mi NNW 13.8 mph 24.2 mph N/A   Overcast
11:35 AM 44.6 °F 38.1 °F 26.6 °F 49% 29.92 in 10.0 mi WNW 13.8 mph 20.7 mph N/A   Mostly Cloudy
11:55 AM 44.6 °F 37.8 °F 26.6 °F 49% 29.91 in 10.0 mi NW 15.0 mph 18.4 mph N/A   Mostly Cloudy
12:15 PM 46.4 °F 40.1 °F 26.6 °F 46% 29.92 in 10.0 mi WNW 15.0 mph 21.9 mph N/A   Mostly Cloudy
12:35 PM 44.6 °F 38.4 °F 26.6 °F 49% 29.92 in 10.0 mi WNW 12.7 mph 18.4 mph N/A   Mostly Cloudy
12:55 PM 44.6 °F 39.2 °F 26.6 °F 49% 29.92 in 10.0 mi West 10.4 mph 18.4 mph N/A   Mostly Cloudy
1:15 PM 46.4 °F 40.1 °F 26.6 °F 46% 29.93 in 10.0 mi West 15.0 mph 18.4 mph N/A   Mostly Cloudy
1:35 PM 46.4 °F 41.5 °F 26.6 °F 46% 29.93 in 10.0 mi West 10.4 mph 16.1 mph N/A   Scattered Clouds
1:55 PM 44.6 °F 38.8 °F 26.6 °F 49% 29.94 in 10.0 mi WNW 11.5 mph 16.1 mph N/A   Mostly Cloudy
2:15 PM 46.4 °F 41.1 °F 26.6 °F 46% 29.94 in 10.0 mi West 11.5 mph - N/A   Scattered Clouds
2:35 PM 48.2 °F - 26.6 °F 43% 29.94 in 10.0 mi WNW 11.5 mph 19.6 mph N/A   Mostly Cloudy
2:55 PM 46.4 °F 41.1 °F 24.8 °F 43% 29.95 in 10.0 mi WNW 11.5 mph - N/A   Scattered Clouds
3:15 PM 48.2 °F - 26.6 °F 43% 29.95 in 10.0 mi West 12.7 mph 20.7 mph N/A   Scattered Clouds
3:35 PM 48.2 °F - 26.6 °F 43% 29.96 in 10.0 mi WNW 10.4 mph 13.8 mph N/A   Mostly Cloudy
3:55 PM 46.4 °F 41.5 °F 24.8 °F 43% 29.96 in 10.0 mi NW 10.4 mph - N/A   Overcast
4:15 PM 46.4 °F 42.4 °F 24.8 °F 43% 29.96 in 10.0 mi NW 8.1 mph - N/A   Overcast
4:35 PM 46.4 °F 42.4 °F 24.8 °F 43% 29.97 in 10.0 mi NW 8.1 mph - N/A   Overcast
4:55 PM 44.6 °F 42.2 °F 28.4 °F 53% 29.97 in 10.0 mi North 4.6 mph - N/A   Overcast
5:15 PM 44.6 °F - 28.4 °F 53% 29.97 in 10.0 mi Calm Calm - N/A   Overcast
5:35 PM 44.6 °F - 28.4 °F 53% 29.97 in 10.0 mi Calm Calm - N/A   Overcast
5:55 PM 44.6 °F - 28.4 °F 53% 29.98 in 10.0 mi Calm Calm - N/A   Overcast
6:15 PM 42.8 °F 38.0 °F 28.4 °F 57% 30.00 in 10.0 mi West 8.1 mph - N/A Rain Light Rain
6:35 PM 42.8 °F 40.1 °F 28.4 °F 57% 30.01 in 10.0 mi NNW 4.6 mph 9.2 mph N/A   Mostly Cloudy
6:55 PM 41.0 °F 37.1 °F 28.4 °F 61% 30.02 in 10.0 mi NW 5.8 mph - N/A   Scattered Clouds
7:15 PM 41.0 °F 38.0 °F 28.4 °F 61% 30.02 in 10.0 mi NW 4.6 mph - N/A   Clear
7:35 PM 39.2 °F 34.2 °F 28.4 °F 65% 30.02 in 10.0 mi WNW 6.9 mph - N/A   Scattered Clouds
7:55 PM 39.2 °F 32.5 °F 26.6 °F 61% 30.03 in 10.0 mi NW 10.4 mph - N/A   Scattered Clouds
8:15 PM 41.0 °F 34.7 °F 24.8 °F 53% 30.03 in 10.0 mi WNW 10.4 mph 16.1 mph N/A   Clear
8:35 PM 39.2 °F 31.6 °F 23.0 °F 52% 30.03 in 10.0 mi NW 12.7 mph 17.3 mph N/A   Clear
8:55 PM 39.2 °F 32.5 °F 24.8 °F 56% 30.04 in 10.0 mi NW 10.4 mph - N/A   Clear
9:15 PM 39.2 °F 31.6 °F 24.8 °F 56% 30.05 in 10.0 mi NW 12.7 mph 20.7 mph N/A   Clear
9:35 PM 37.4 °F 31.4 °F 26.6 °F 65% 30.05 in 10.0 mi NW 8.1 mph 16.1 mph N/A   Clear
9:55 PM 37.4 °F 32.1 °F 24.8 °F 60% 30.05 in 10.0 mi NW 6.9 mph - N/A   Clear
10:15 PM 37.4 °F 29.8 °F 26.6 °F 65% 30.07 in 10.0 mi NNW 11.5 mph 18.4 mph N/A   Scattered Clouds
10:35 PM 35.6 °F 29.2 °F 24.8 °F 65% 30.07 in 10.0 mi NW 8.1 mph - N/A   Scattered Clouds
10:55 PM 35.6 °F 28.6 °F 26.6 °F 70% 30.08 in 10.0 mi NW 9.2 mph - N/A   Mostly Cloudy
11:15 PM 35.6 °F 27.5 °F 26.6 °F 70% 30.08 in 10.0 mi NNW 11.5 mph - N/A   Overcast
11:35 PM 35.6 °F 27.5 °F 24.8 °F 65% 30.08 in 10.0 mi NNW 11.5 mph - N/A   Overcast
11:55 PM 35.6 °F 27.5 °F 23.0 °F 60% 30.09 in 10.0 mi NNW 11.5 mph 16.1 mph N/A   Overcast